Lid_Strength_Index
-1 -1 -0 -0 -0 -0 -0 0 2 4 3 1 1 -2 -1 -1 -2 -2 -2 0 0 1 2 2 2 1 2 2 2 2 3 3 3 2 2 3 2 -0
-0 -0 -1 -0 -1 -0 -0 -0 0 1 3 1 0 -1 -1 -1 -2 -2 -2 0 0 -0 1 2 2 2 2 3 3 3 3 4 4 4 4 3 -0 -0
-0 -1 -0 -1 0 -0 -0 -0 0 0 2 1 0 -1 -1 -1 -1 -2 -1 -2 -1 -1 1 1 2 2 3 4 4 5 5 6 5 5 5 2 1 1
-0 -0 -0 -0 -0 -0 0 -0 0 -0 1 2 0 0 -0 -1 -1 -1 -1 -1 -1 -0 1 1 2 3 4 6 6 7 7 7 7 6 5 1 2 2
-0 -0 -0 -0 0 0 -0 0 0 0 0 1 1 0 -0 -0 -0 -1 -0 -1 -1 -1 1 1 1 3 5 8 8 8 9 8 8 8 5 3 3 3
-0 -0 -0 -0 0 0 0 0 0 1 0 1 1 1 1 -1 -0 1 1 -0 -0 -1 -1 -0 1 2 6 8 8 8 8 9 9 7 5 4 4 4
-0 -0 -0 -0 1 0 0 0 -0 1 1 1 2 1 1 1 1 1 1 1 -0 -1 -0 -1 -1 -1 3 7 7 7 8 8 8 7 5 5 6 5
0 -0 -0 0 0 3 3 2 0 1 1 2 2 2 1 1 0 1 1 2 3 -1 0 0 -1 -0 -1 -0 7 8 8 8 8 7 5 6 6 6
0 0 0 -0 0 -0 2 3 2 2 2 0 2 1 1 1 0 1 1 1 2 0 0 2 -0 0 -1 6 8 9 9 8 8 8 5 6 6 7
-0 -0 0 -0 -0 -0 0 0 0 -0 -0 -0 0 0 -0 -0 -0 0 0 1 0 0 -0 2 0 1 -0 2 8 9 9 9 9 8 6 6 7 8
-0 -0 -0 0 2 4 0 1 1 0 2 4 3 4 4 4 3 -0 1 2 2 1 -0 1 1 1 0 0 5 8 10 9 10 9 7 6 8 7
0 -0 3 0 4 7 0 1 2 1 0 -0 -0 1 3 0 4 -1 0 2 2 2 -0 1 1 1 2 -0 2 7 7 10 10 10 9 8 8 -1
1 1 0 5 5 6 7 0 1 0 1 0 0 0 -0 -0 -0 -0 -1 1 2 2 -0 -0 1 1 1 2 0 1 -0 6 5 8 10 9 8 5
1 0 0 7 8 7 5 4 5 5 0 1 1 1 1 0 -0 -0 -1 -1 -1 0 -1 -1 1 1 2 2 2 0 0 -0 0 2 1 7 8 8
0 1 8 9 10 9 9 8 8 1 1 2 2 1 1 -0 -1 -1 -1 -1 -1 -1 -1 -1 0 0 1 2 2 1 2 1 0 1 1 -0 -0 -1
4 1 2 4 8 5 3 5 2 0 1 1 1 1 0 0 0 0 1 0 1 1 -1 -1 -1 -0 1 1 1 2 1 2 0 1 1 0 -0 -0
7 2 1 1 1 1 1 1 1 1 1 1 1 1 1 1 1 0 0 1 1 2 1 0 -1 -1 -0 0 2 1 1 1 1 0 1 1 0 -0
6 2 2 2 2 2 2 1 1 2 1 1 1 1 1 1 1 1 1 1 2 1 1 1 1 1 1 1 2 2 1 1 1 1 1 2 1 -0
4 2 2 2 2 1 2 2 2 1 0 1 1 1 1 1 2 1 1 1 2 1 1 1 1 2 4 4 1 3 2 1 1 2 1 1 2 1
3 2 2 2 2 2 1 1 1 1 1 1 1 1 1 1 2 2 2 2 2 2 2 1 1 2 3 3 3 1 7 1 1 2 2 0 3 7
2 2 1 2 2 1 1 1 1 1 1 1 1 1 1 1 2 2 1 5 3 2 2 2 1 4 0 0 3 2 1 9 4 1 1 2 2 2
2 2 1 1 1 1 1 1 1 1 1 1 1 1 1 1 2 2 2 2 2 2 2 1 0 1 1 2 3 2 2 0 7 8 7 6 2 3
4 4 4 1 1 1 1 1 1 1 1 1 1 1 1 2 1 1 1 2 2 2 2 2 1 1 2 2 3 2 2 2 1 3 3 8 8 7